Terminal Aerodrome Forecast
Issued by NWS Louisville, KY

Home | Current Version | Previous Version | Text Only | Print | Product List | Glossary On
Versions: 1 2 3 4 5 6 7 8 9 10 11 12 13 14
000
FTUS43 KLMK 181700
TAFSDF
TAF
KSDF 181720Z 1818/1924 VRB04KT P6SM SCT060 BKN250
     FM190100 02005KT P6SM SCT250
     FM191400 05010KT P6SM FEW250=

USA.gov is the U.S. government's official web portal to all federal, state and local government web resources and services.